Location: Arrien
(42.8963°N, 1.0429°E)
Time: 03:20:41
(UTC+00:00)

NOAA 15 - Pass Details

Date: 25 April 2026
Orbit: 793 x 810 km, 98.5° (Epoch: 11 May)

Event Time Altitude Azimuth Distance (km) Brightness Sun altitude
Rises 19:36:23 0° 210° (SSW) 3,307 7.8 -8.7°
Reaches altitude 10° 19:39:34 10° 230° (SW) 2,379 7.4 -9.2°
Maximum altitude 19:42:52 17° 269° (W) 1,954 7.6 -9.7°
Drops below altitude 10° 19:46:10 10° 309° (NW) 2,383 8.6 -10.3°
Sets 19:49:24 0° 329° (NNW) 3,316 9.0 -10.8°
